Time,TemperatureF,DewpointF,PressureIn,WindDirection,WindDirectionDegrees,WindSpeedMPH,WindSpeedGustMPH,Humidity,HourlyPrecipIn,Conditions,Clouds,dailyrainin,SoftwareType,DateUTC
2013-03-08 00:07:00,53.7,48.0,31.00,SSE,149,1.0,-999.0,80,-99.99,,,0.00,weatherlink.com 1.10,2013-03-08 06:07:00,
2013-03-08 00:22:00,53.6,48.0,31.00,SE,136,3.0,-999.0,81,-99.99,,,0.00,weatherlink.com 1.10,2013-03-08 06:22:00,
2013-03-08 00:37:00,53.5,48.0,31.00,ESE,115,4.0,-999.0,81,-99.99,,,0.00,weatherlink.com 1.10,2013-03-08 06:37:00,
2013-03-08 00:52:00,53.5,48.0,30.99,SE,134,0.0,-999.0,82,-99.99,,,0.00,weatherlink.com 1.10,2013-03-08 06:52:00,
2013-03-08 01:07:00,53.5,48.0,30.99,ESE,114,2.0,-999.0,82,-99.99,,,0.00,weatherlink.com 1.10,2013-03-08 07:07:00,
2013-03-08 01:22:00,53.4,48.0,30.99,SSE,148,0.0,-999.0,83,-99.99,,,0.00,weatherlink.com 1.10,2013-03-08 07:22:00,
2013-03-08 01:37:00,53.3,48.0,30.99,ESE,122,0.0,-999.0,83,-99.99,,,0.00,weatherlink.com 1.10,2013-03-08 07:37:00,
2013-03-08 01:52:00,53.3,48.0,30.98,ESE,120,0.0,-999.0,83,-99.99,,,0.00,weatherlink.com 1.10,2013-03-08 07:52:00,
2013-03-08 02:07:00,53.4,49.0,30.98,SE,134,0.0,-999.0,84,-99.99,,,0.00,weatherlink.com 1.10,2013-03-08 08:07:00,
2013-03-08 02:22:00,53.5,49.0,30.98,SE,131,3.0,-999.0,84,-99.99,,,0.00,weatherlink.com 1.10,2013-03-08 08:22:00,
2013-03-08 02:37:00,53.7,49.0,30.97,ESE,105,0.0,-999.0,85,-99.99,,,0.00,weatherlink.com 1.10,2013-03-08 08:37:00,
2013-03-08 02:52:00,53.8,49.0,30.97,East,100,3.0,-999.0,85,-99.99,,,0.00,weatherlink.com 1.10,2013-03-08 08:52:00,
2013-03-08 03:07:00,53.7,49.0,30.95,ESE,119,2.0,-999.0,85,-99.99,,,0.00,weatherlink.com 1.10,2013-03-08 09:07:00,
2013-03-08 03:22:00,53.4,49.0,30.95,ESE,105,0.0,-999.0,85,-99.99,,,0.00,weatherlink.com 1.10,2013-03-08 09:22:00,
2013-03-08 03:37:00,53.1,49.0,30.95,ESE,109,4.0,-999.0,86,-99.99,,,0.00,weatherlink.com 1.10,2013-03-08 09:37:00,
2013-03-08 03:52:00,53.5,50.0,30.95,ESE,113,3.0,-999.0,87,-99.99,,,0.00,weatherlink.com 1.10,2013-03-08 09:52:00,
2013-03-08 04:07:00,53.8,50.0,30.94,ESE,109,2.0,-999.0,87,-99.99,,,0.00,weatherlink.com 1.10,2013-03-08 10:07:00,
2013-03-08 04:22:00,53.6,50.0,30.94,ESE,111,3.0,-999.0,87,-99.99,,,0.00,weatherlink.com 1.10,2013-03-08 10:22:00,
2013-03-08 04:37:00,53.4,50.0,30.94,ESE,119,3.0,-999.0,87,-99.99,,,0.00,weatherlink.com 1.10,2013-03-08 10:37:00,
2013-03-08 04:52:00,53.3,50.0,30.94,East,100,3.0,-999.0,87,-99.99,,,0.00,weatherlink.com 1.10,2013-03-08 10:52:00,
2013-03-08 05:07:00,53.1,50.0,30.95,ESE,110,4.0,-999.0,88,-99.99,,,0.00,weatherlink.com 1.10,2013-03-08 11:07:00,
2013-03-08 05:22:00,53.0,50.0,30.96,ESE,114,0.0,-999.0,88,-99.99,,,0.00,weatherlink.com 1.10,2013-03-08 11:22:00,
2013-03-08 05:37:00,53.2,50.0,30.96,East,98,6.0,-999.0,89,-99.99,,,0.00,weatherlink.com 1.10,2013-03-08 11:37:00,
2013-03-08 05:52:00,53.0,50.0,30.95,SSE,151,6.0,-999.0,89,-99.99,,,0.00,weatherlink.com 1.10,2013-03-08 11:52:00,
2013-03-08 06:07:00,53.2,50.0,30.95,SE,136,0.0,-999.0,90,-99.99,,,0.00,weatherlink.com 1.10,2013-03-08 12:07:00,
2013-03-08 06:22:00,53.5,51.0,30.96,ESE,114,3.0,-999.0,90,-99.99,,,0.00,weatherlink.com 1.10,2013-03-08 12:22:00,
2013-03-08 06:37:00,53.6,51.0,30.96,East,98,4.0,-999.0,90,-99.99,,,0.00,weatherlink.com 1.10,2013-03-08 12:37:00,
2013-03-08 06:52:00,53.8,51.0,30.96,ENE,75,4.0,-999.0,90,-99.99,,,0.00,weatherlink.com 1.10,2013-03-08 12:52:00,
2013-03-08 07:07:00,54.1,51.0,30.97,ESE,117,2.0,-999.0,90,-99.99,,,0.00,weatherlink.com 1.10,2013-03-08 13:07:00,
2013-03-08 07:22:00,54.5,52.0,30.98,East,94,3.0,-999.0,90,-99.99,,,0.00,weatherlink.com 1.10,2013-03-08 13:22:00,
2013-03-08 07:37:00,54.6,52.0,30.98,East,90,0.0,-999.0,90,-99.99,,,0.00,weatherlink.com 1.10,2013-03-08 13:37:00,
2013-03-08 07:52:00,54.9,52.0,30.99,ESE,107,2.0,-999.0,90,-99.99,,,0.00,weatherlink.com 1.10,2013-03-08 13:52:00,
2013-03-08 08:07:00,55.5,53.0,30.99,SE,132,2.0,-999.0,90,-99.99,,,0.00,weatherlink.com 1.10,2013-03-08 14:07:00,
2013-03-08 08:22:00,56.8,54.0,30.98,ESE,118,4.0,-999.0,89,-99.99,,,0.00,weatherlink.com 1.10,2013-03-08 14:22:00,
2013-03-08 08:37:00,58.1,55.0,30.99,SSE,148,5.0,-999.0,88,-99.99,,,0.00,weatherlink.com 1.10,2013-03-08 14:37:00,
2013-03-08 08:53:00,59.3,55.0,30.98,East,93,5.0,-999.0,86,-99.99,,,0.00,weatherlink.com 1.10,2013-03-08 14:53:00,
2013-03-08 09:08:00,60.1,56.0,30.99,East,82,4.0,-999.0,85,-99.99,,,0.00,weatherlink.com 1.10,2013-03-08 15:08:00,
2013-03-08 09:23:00,60.9,56.0,31.00,ESE,119,5.0,-999.0,84,-99.99,,,0.00,weatherlink.com 1.10,2013-03-08 15:23:00,
2013-03-08 09:38:00,61.7,57.0,31.00,ESE,114,2.0,-999.0,83,-99.99,,,0.00,weatherlink.com 1.10,2013-03-08 15:38:00,
2013-03-08 09:53:00,62.4,57.0,31.00,SE,134,2.0,-999.0,82,-99.99,,,0.00,weatherlink.com 1.10,2013-03-08 15:53:00,
2013-03-08 10:08:00,63.2,57.0,30.99,ESE,111,1.0,-999.0,81,-99.99,,,0.00,weatherlink.com 1.10,2013-03-08 16:08:00,
2013-03-08 10:23:00,63.6,57.0,31.00,ESE,102,2.0,-999.0,80,-99.99,,,0.00,weatherlink.com 1.10,2013-03-08 16:23:00,
2013-03-08 10:38:00,63.6,57.0,31.00,SE,142,2.0,-999.0,80,-99.99,,,0.00,weatherlink.com 1.10,2013-03-08 16:38:00,
2013-03-08 10:53:00,64.3,58.0,31.00,East,94,2.0,-999.0,80,-99.99,,,0.00,weatherlink.com 1.10,2013-03-08 16:53:00,
2013-03-08 11:08:00,64.8,58.0,31.01,SE,138,3.0,-999.0,79,-99.99,,,0.00,weatherlink.com 1.10,2013-03-08 17:08:00,
2013-03-08 11:23:00,65.5,58.0,31.00,ESE,115,3.0,-999.0,77,-99.99,,,0.00,weatherlink.com 1.10,2013-03-08 17:23:00,
2013-03-08 11:38:00,65.9,59.0,30.99,East,101,7.0,-999.0,77,-99.99,,,0.00,weatherlink.com 1.10,2013-03-08 17:38:00,
2013-03-08 11:53:00,66.3,59.0,30.99,East,90,8.0,-999.0,77,-99.99,,,0.00,weatherlink.com 1.10,2013-03-08 17:53:00,
2013-03-08 12:08:00,67.0,59.0,30.98,ENE,72,5.0,-999.0,75,-99.99,,,0.00,weatherlink.com 1.10,2013-03-08 18:08:00,
2013-03-08 12:23:00,67.2,59.0,30.97,South,180,4.0,-999.0,75,-99.99,,,0.00,weatherlink.com 1.10,2013-03-08 18:23:00,
2013-03-08 12:38:00,67.6,59.0,30.96,South,177,4.0,-999.0,75,-99.99,,,0.00,weatherlink.com 1.10,2013-03-08 18:38:00,
2013-03-08 12:53:00,67.6,59.0,30.95,SSE,148,9.0,-999.0,74,-99.99,,,0.00,weatherlink.com 1.10,2013-03-08 18:53:00,
2013-03-08 13:08:00,67.3,59.0,30.94,SSE,150,11.0,-999.0,75,-99.99,,,0.00,weatherlink.com 1.10,2013-03-08 19:08:00,
2013-03-08 13:23:00,67.6,59.0,30.93,ESE,110,6.0,-999.0,74,-99.99,,,0.00,weatherlink.com 1.10,2013-03-08 19:23:00,
2013-03-08 13:38:00,67.9,59.0,30.92,SSE,147,6.0,-999.0,74,-99.99,,,0.00,weatherlink.com 1.10,2013-03-08 19:38:00,
2013-03-08 13:53:00,68.6,60.0,30.91,SSE,147,9.0,-999.0,73,-99.99,,,0.00,weatherlink.com 1.10,2013-03-08 19:53:00,
2013-03-08 14:08:00,69.1,59.0,30.91,SSE,148,5.0,-999.0,71,-99.99,,,0.00,weatherlink.com 1.10,2013-03-08 20:08:00,
2013-03-08 14:23:00,71.0,61.0,30.90,SE,138,3.0,-999.0,70,-99.99,,,0.00,weatherlink.com 1.10,2013-03-08 20:23:00,
2013-03-08 14:38:00,71.0,59.0,30.89,East,84,6.0,-999.0,67,-99.99,,,0.00,weatherlink.com 1.10,2013-03-08 20:38:00,
2013-03-08 14:53:00,70.1,59.0,30.90,SE,142,6.0,-999.0,68,-99.99,,,0.00,weatherlink.com 1.10,2013-03-08 20:53:00,
2013-03-08 15:08:00,69.8,59.0,30.90,SSE,148,4.0,-999.0,69,-99.99,,,0.00,weatherlink.com 1.10,2013-03-08 21:08:00,
2013-03-08 15:23:00,69.2,59.0,30.91,SE,143,5.0,-999.0,70,-99.99,,,0.00,weatherlink.com 1.10,2013-03-08 21:23:00,
2013-03-08 15:39:00,69.1,59.0,30.91,SSE,148,7.0,-999.0,71,-99.99,,,0.00,weatherlink.com 1.10,2013-03-08 21:39:00,
2013-03-08 15:54:00,68.7,59.0,30.90,SSE,155,5.0,-999.0,71,-99.99,,,0.00,weatherlink.com 1.10,2013-03-08 21:54:00,
2013-03-08 16:09:00,68.8,59.0,30.89,SE,144,4.0,-999.0,71,-99.99,,,0.00,weatherlink.com 1.10,2013-03-08 22:09:00,
2013-03-08 16:24:00,69.0,59.0,30.89,SE,136,3.0,-999.0,70,-99.99,,,0.00,weatherlink.com 1.10,2013-03-08 22:24:00,
2013-03-08 16:38:00,68.6,58.0,30.90,SSE,163,5.0,-999.0,70,-99.99,,,0.00,weatherlink.com 1.10,2013-03-08 22:38:00,
2013-03-08 16:53:00,68.3,58.0,30.89,SE,140,4.0,-999.0,70,-99.99,,,0.00,weatherlink.com 1.10,2013-03-08 22:53:00,
2013-03-08 17:08:00,67.6,57.0,30.90,SE,145,4.0,-999.0,70,-99.99,,,0.00,weatherlink.com 1.10,2013-03-08 23:08:00,
2013-03-08 17:23:00,67.2,57.0,30.92,SSE,150,5.0,-999.0,71,-99.99,,,0.00,weatherlink.com 1.10,2013-03-08 23:23:00,
2013-03-08 17:38:00,67.0,58.0,30.92,SE,146,6.0,-999.0,72,-99.99,,,0.00,weatherlink.com 1.10,2013-03-08 23:38:00,
2013-03-08 17:53:00,66.7,57.0,30.90,SE,129,4.0,-999.0,72,-99.99,,,0.00,weatherlink.com 1.10,2013-03-08 23:53:00,
2013-03-08 18:09:00,66.3,57.0,30.90,SSE,151,4.0,-999.0,73,-99.99,,,0.00,weatherlink.com 1.10,2013-03-09 00:09:00,
2013-03-08 18:23:00,65.7,57.0,30.89,SE,143,3.0,-999.0,74,-99.99,,,0.00,weatherlink.com 1.10,2013-03-09 00:23:00,
2013-03-08 18:38:00,65.3,57.0,30.89,ESE,121,1.0,-999.0,74,-99.99,,,0.00,weatherlink.com 1.10,2013-03-09 00:38:00,
2013-03-08 18:53:00,65.0,57.0,30.87,South,171,7.0,-999.0,75,-99.99,,,0.00,weatherlink.com 1.10,2013-03-09 00:53:00,
2013-03-08 19:08:00,64.6,57.0,30.86,SE,146,2.0,-999.0,76,-99.99,,,0.00,weatherlink.com 1.10,2013-03-09 01:08:00,
2013-03-08 19:23:00,64.1,57.0,30.87,SSE,148,7.0,-999.0,77,-99.99,,,0.00,weatherlink.com 1.10,2013-03-09 01:23:00,
2013-03-08 19:38:00,63.9,57.0,30.86,ESE,123,7.0,-999.0,77,-99.99,,,0.00,weatherlink.com 1.10,2013-03-09 01:38:00,
2013-03-08 19:53:00,63.7,56.0,30.86,ESE,109,9.0,-999.0,77,-99.99,,,0.00,weatherlink.com 1.10,2013-03-09 01:53:00,
2013-03-08 20:08:00,63.5,57.0,30.86,East,83,10.0,-999.0,78,-99.99,,,0.00,weatherlink.com 1.10,2013-03-09 02:08:00,
2013-03-08 20:23:00,63.2,56.0,30.87,SE,146,6.0,-999.0,78,-99.99,,,0.00,weatherlink.com 1.10,2013-03-09 02:23:00,
2013-03-08 20:38:00,63.0,56.0,30.88,SSE,155,0.0,-999.0,79,-99.99,,,0.00,weatherlink.com 1.10,2013-03-09 02:38:00,
2013-03-08 20:53:00,62.6,56.0,30.90,SSE,167,8.0,-999.0,80,-99.99,,,0.00,weatherlink.com 1.10,2013-03-09 02:53:00,
2013-03-08 21:08:00,62.0,56.0,30.91,South,170,4.0,-999.0,81,-99.99,,,0.00,weatherlink.com 1.10,2013-03-09 03:08:00,
2013-03-08 21:23:00,61.6,56.0,30.92,SSE,159,5.0,-999.0,83,-99.99,,,0.00,weatherlink.com 1.10,2013-03-09 03:23:00,
2013-03-08 21:38:00,61.4,56.0,30.91,South,191,5.0,-999.0,83,-99.99,,,0.00,weatherlink.com 1.10,2013-03-09 03:38:00,
2013-03-08 21:53:00,61.1,56.0,30.91,South,182,3.0,-999.0,84,-99.99,,,0.00,weatherlink.com 1.10,2013-03-09 03:53:00,
2013-03-08 22:08:00,60.9,56.0,30.90,SSE,150,0.0,-999.0,85,-99.99,,,0.00,weatherlink.com 1.10,2013-03-09 04:08:00,
2013-03-08 22:23:00,60.8,56.0,30.90,SSE,164,4.0,-999.0,85,-99.99,,,0.00,weatherlink.com 1.10,2013-03-09 04:23:00,
2013-03-08 22:38:00,60.7,57.0,30.89,SE,137,4.0,-999.0,86,-99.99,,,0.00,weatherlink.com 1.10,2013-03-09 04:38:00,
2013-03-08 22:53:00,60.6,56.0,30.89,SE,125,1.0,-999.0,86,-99.99,,,0.00,weatherlink.com 1.10,2013-03-09 04:53:00,
2013-03-08 23:08:00,60.4,56.0,30.89,SSE,149,3.0,-999.0,86,-99.99,,,0.00,weatherlink.com 1.10,2013-03-09 05:08:00,
2013-03-08 23:23:00,60.4,57.0,30.88,SSE,156,0.0,-999.0,87,-99.99,,,0.00,weatherlink.com 1.10,2013-03-09 05:23:00,
2013-03-08 23:38:00,60.2,56.0,30.87,SE,141,0.0,-999.0,87,-99.99,,,0.00,weatherlink.com 1.10,2013-03-09 05:38:00,
2013-03-08 23:53:00,60.1,56.0,30.86,ESE,121,3.0,-999.0,87,-99.99,,,0.00,weatherlink.com 1.10,2013-03-09 05:53:00,